Voltar ao catálogo

ION SCV-008

AtivoCiênciaSSO
NORAD 55051·PAYLOAD·🇮🇹 Italy

Lançado Jan 3, 2023 de Cape Canaveral Space Force Station

Loading…

Próximas Passagens (próximas 24 horas)

TLE

AtualizadoSource: Space-Track

Época: Sep 13, 2026, 20:18 UTC

1 55051U 23001AU  26256.84648471  .00005351  00000-0  18915-3 0  9996
2 55051  97.5720 354.7087 0015775  62.7898 297.4947 15.29513982204886

Acompanhe ION SCV-008 em tempo real com AllMySat

Download on the App Store